AIC2145 VIDP-WADD

Flight info

Callsign AIC2145
Flight time N/A
Altitude 33000
Route ITBAN7C ITBAN L759 LAMBU/N0455F350 L759 PUT B579 VPL W531 VIH A464 VKL Y507 MAKNA Y511 TOPOR A464 IRTAD B338 AKVOM M630 JUNHA M635 SURGA/N0451F370 M635 UDONO
Aircraft A21N/M-SDE2E3FGHIRWXY/LB1

Departure

Time N/A
Airport Indira Gandhi International Airport (VIDP)

Arrival

Time 2026-04-27 15:29
Airport Denpasar I Gusti Ngurah Rai International Airport (WADD)
Time Latitude Longitude Altitude Speed Heading
2026-04-27 11:57 8.43519 98.01039 36821 ft 451 kts 137°
2026-04-27 11:57 8.41197 98.03183 36821 ft 451 kts 137°
2026-04-27 11:58 8.36569 98.07457 36811 ft 451 kts 137°
2026-04-27 11:58 8.31970 98.11702 36809 ft 451 kts 137°
2026-04-27 11:59 8.27308 98.16005 36807 ft 451 kts 137°
2026-04-27 11:59 8.22712 98.20243 36799 ft 450 kts 137°
2026-04-27 12:00 8.18100 98.24498 36798 ft 449 kts 137°
2026-04-27 12:00 8.13487 98.28751 36801 ft 449 kts 137°
2026-04-27 12:01 8.08798 98.32915 36804 ft 449 kts 140°
2026-04-27 12:01 8.03953 98.36893 36800 ft 448 kts 141°
2026-04-27 12:02 7.99101 98.40832 36797 ft 447 kts 140°
2026-04-27 12:02 7.94269 98.44784 36790 ft 447 kts 140°
2026-04-27 12:03 7.89450 98.48745 36792 ft 447 kts 140°
2026-04-27 12:03 7.84627 98.52715 36798 ft 447 kts 140°
2026-04-27 12:04 7.79807 98.56681 36796 ft 447 kts 140°
2026-04-27 12:04 7.75015 98.60621 36798 ft 447 kts 140°
2026-04-27 12:05 7.70192 98.64586 36808 ft 447 kts 140°
2026-04-27 12:05 7.65371 98.68551 36809 ft 447 kts 140°
2026-04-27 12:06 7.60548 98.72516 36808 ft 447 kts 140°
2026-04-27 12:06 7.55729 98.76477 36807 ft 446 kts 140°
2026-04-27 12:07 7.50920 98.80429 36825 ft 446 kts 140°
2026-04-27 12:07 7.46133 98.84362 36817 ft 443 kts 140°
2026-04-27 12:08 7.41356 98.88280 36818 ft 443 kts 140°
2026-04-27 12:08 7.36576 98.92198 36817 ft 443 kts 141°
2026-04-27 12:09 7.31817 98.96099 36827 ft 444 kts 140°
2026-04-27 12:09 7.27033 99.00018 36827 ft 443 kts 140°
2026-04-27 12:10 7.22254 99.03933 36826 ft 442 kts 140°
2026-04-27 12:10 7.17478 99.07846 36825 ft 442 kts 141°
2026-04-27 12:11 7.12702 99.11757 36823 ft 442 kts 140°
2026-04-27 12:11 7.07929 99.15663 36823 ft 442 kts 140°
2026-04-27 12:12 7.03155 99.19569 36823 ft 442 kts 140°
2026-04-27 12:12 6.98378 99.23477 36823 ft 442 kts 140°
2026-04-27 12:13 6.93637 99.27354 36821 ft 442 kts 140°
2026-04-27 12:13 6.88861 99.31260 36823 ft 442 kts 140°
2026-04-27 12:14 6.84081 99.35167 36823 ft 442 kts 140°
2026-04-27 12:14 6.79305 99.39070 36823 ft 442 kts 140°
2026-04-27 12:15 6.74530 99.42971 36830 ft 442 kts 140°
2026-04-27 12:15 6.69764 99.46864 36826 ft 441 kts 140°
2026-04-27 12:16 6.65005 99.50750 36825 ft 440 kts 140°
2026-04-27 12:16 6.60247 99.54634 36827 ft 440 kts 140°
2026-04-27 12:17 6.55482 99.58523 36829 ft 440 kts 140°
2026-04-27 12:17 6.50749 99.62386 36829 ft 441 kts 140°
2026-04-27 12:18 6.45983 99.66259 36830 ft 441 kts 141°
2026-04-27 12:18 6.41161 99.70064 36825 ft 441 kts 141°
2026-04-27 12:19 6.36314 99.73849 36830 ft 441 kts 141°
2026-04-27 12:19 6.31445 99.77607 36834 ft 441 kts 142°
2026-04-27 12:20 6.26560 99.81342 36837 ft 441 kts 142°
2026-04-27 12:20 6.21707 99.85052 36837 ft 441 kts 142°
2026-04-27 12:21 6.16826 99.88790 36837 ft 441 kts 142°
2026-04-27 12:21 6.11948 99.92528 36837 ft 441 kts 142°
2026-04-27 12:22 6.07071 99.96264 36837 ft 441 kts 142°
2026-04-27 12:22 6.02191 100.00001 36834 ft 441 kts 142°
2026-04-27 12:23 5.97302 100.03712 36834 ft 440 kts 142°
2026-04-27 12:23 5.93233 100.06787 36834 ft 440 kts 142°
2026-04-27 12:24 5.88338 100.10485 36832 ft 440 kts 142°
2026-04-27 12:24 5.83449 100.14183 36823 ft 440 kts 142°
2026-04-27 12:25 5.77770 100.18481 36823 ft 440 kts 142°
2026-04-27 12:25 5.73676 100.21580 36823 ft 440 kts 142°
2026-04-27 12:26 5.68780 100.25283 36823 ft 441 kts 142°
2026-04-27 12:26 5.63918 100.28961 36812 ft 441 kts 142°
2026-04-27 12:27 5.59021 100.32663 36829 ft 441 kts 142°
2026-04-27 12:27 5.54118 100.36370 36828 ft 441 kts 142°
2026-04-27 12:28 5.49204 100.40085 36826 ft 442 kts 142°
2026-04-27 12:28 5.44287 100.43801 36830 ft 441 kts 142°
2026-04-27 12:29 5.39383 100.47506 36830 ft 442 kts 142°
2026-04-27 12:29 5.34475 100.51213 36826 ft 441 kts 142°
2026-04-27 12:30 5.29581 100.54909 36825 ft 440 kts 142°
2026-04-27 12:30 5.24676 100.58612 36831 ft 440 kts 143°
2026-04-27 12:31 5.19826 100.62272 36826 ft 439 kts 142°
2026-04-27 12:31 5.14949 100.65954 36826 ft 439 kts 142°
2026-04-27 12:32 5.10066 100.69640 36826 ft 439 kts 142°
2026-04-27 12:32 5.05183 100.73323 36826 ft 439 kts 142°
2026-04-27 12:33 5.00303 100.77005 36821 ft 439 kts 142°
2026-04-27 12:33 4.95423 100.80685 36824 ft 439 kts 142°
2026-04-27 12:34 4.90542 100.84366 36823 ft 439 kts 142°
2026-04-27 12:34 4.85659 100.88047 36838 ft 439 kts 142°
2026-04-27 12:35 4.80770 100.91733 36838 ft 440 kts 142°
2026-04-27 12:35 4.75873 100.95424 36843 ft 440 kts 142°
2026-04-27 12:36 4.70974 100.99116 36849 ft 440 kts 142°
2026-04-27 12:36 4.66075 101.02807 36857 ft 441 kts 142°
2026-04-27 12:37 4.61208 101.06474 36854 ft 440 kts 142°
2026-04-27 12:37 4.55947 101.09592 36856 ft 441 kts 158°
2026-04-27 12:38 4.50122 101.11557 36858 ft 442 kts 162°
2026-04-27 12:38 4.44197 101.13273 36854 ft 444 kts 163°
2026-04-27 12:39 4.38240 101.14959 36849 ft 445 kts 163°
2026-04-27 12:39 4.32290 101.16665 36836 ft 445 kts 162°
2026-04-27 12:40 4.26341 101.18390 36835 ft 445 kts 162°
2026-04-27 12:40 4.20393 101.20119 36829 ft 445 kts 162°
2026-04-27 12:41 4.14483 101.21837 36818 ft 445 kts 162°
2026-04-27 12:41 4.08544 101.23562 36818 ft 445 kts 162°
2026-04-27 12:42 4.02598 101.25288 36813 ft 445 kts 162°
2026-04-27 12:42 3.96652 101.27014 36817 ft 445 kts 162°
2026-04-27 12:43 3.90710 101.28739 36816 ft 445 kts 162°
2026-04-27 12:43 3.84764 101.30465 36816 ft 445 kts 162°
2026-04-27 12:44 3.78837 101.32193 36826 ft 442 kts 162°
2026-04-27 12:44 3.72947 101.33951 36823 ft 442 kts 162°
2026-04-27 12:45 3.67044 101.35727 36824 ft 443 kts 162°
2026-04-27 12:45 3.61133 101.37502 36823 ft 443 kts 162°
2026-04-27 12:46 3.55259 101.39262 36820 ft 443 kts 162°
2026-04-27 12:46 3.49350 101.41031 36821 ft 443 kts 162°
2026-04-27 12:47 3.43439 101.42801 36825 ft 443 kts 162°
2026-04-27 12:47 3.37526 101.44571 36833 ft 443 kts 162°
2026-04-27 12:48 3.31681 101.46540 36845 ft 443 kts 155°
2026-04-27 12:48 3.26035 101.49027 36851 ft 444 kts 154°
2026-04-27 12:49 3.20426 101.51618 36856 ft 444 kts 153°
2026-04-27 12:49 3.14829 101.54221 36856 ft 444 kts 154°
2026-04-27 12:50 3.09261 101.56801 36854 ft 444 kts 154°
2026-04-27 12:50 3.03655 101.59390 36854 ft 444 kts 154°
2026-04-27 12:51 2.98047 101.61977 36848 ft 443 kts 154°
2026-04-27 12:51 2.92468 101.64550 36839 ft 441 kts 154°
2026-04-27 12:52 2.86905 101.67116 36831 ft 440 kts 154°
2026-04-27 12:52 2.81346 101.69680 36822 ft 439 kts 154°
2026-04-27 12:53 2.73023 101.73521 36828 ft 439 kts 153°
2026-04-27 12:53 2.67509 101.76155 36830 ft 439 kts 153°
2026-04-27 12:54 2.62026 101.78837 36827 ft 438 kts 152°
2026-04-27 12:54 2.56620 101.81567 36825 ft 437 kts 147°
2026-04-27 12:55 2.51968 101.85408 36833 ft 434 kts 130°
2026-04-27 12:55 2.48173 101.90099 36836 ft 434 kts 127°
2026-04-27 12:56 2.44557 101.94947 36837 ft 435 kts 126°
2026-04-27 12:56 2.40955 101.99810 36837 ft 435 kts 126°
2026-04-27 12:57 2.37332 102.04653 36854 ft 435 kts 126°
2026-04-27 12:57 2.33713 102.09471 36847 ft 437 kts 127°
2026-04-27 12:58 2.30050 102.14338 36848 ft 438 kts 127°
2026-04-27 12:58 2.26382 102.19206 36857 ft 438 kts 127°
2026-04-27 12:59 2.22719 102.24067 36855 ft 438 kts 126°
2026-04-27 12:59 2.19037 102.28952 36856 ft 440 kts 126°
2026-04-27 13:00 2.15352 102.33842 36858 ft 440 kts 126°
2026-04-27 13:00 2.11668 102.38730 36861 ft 440 kts 126°
2026-04-27 13:01 2.07987 102.43614 36861 ft 439 kts 127°
2026-04-27 13:01 2.04331 102.48462 36862 ft 439 kts 127°
2026-04-27 13:02 2.00655 102.53340 36862 ft 439 kts 127°
2026-04-27 13:02 1.96983 102.58215 36862 ft 439 kts 127°
2026-04-27 13:03 1.93314 102.63087 36862 ft 438 kts 127°
2026-04-27 13:03 1.89642 102.67961 36862 ft 438 kts 127°
2026-04-27 13:04 1.85997 102.72799 36861 ft 438 kts 126°
2026-04-27 13:04 1.82321 102.77678 36871 ft 440 kts 126°
2026-04-27 13:05 1.78656 102.82545 36862 ft 437 kts 126°
2026-04-27 13:05 1.75008 102.87387 36861 ft 436 kts 126°
2026-04-27 13:06 1.71865 102.92556 36864 ft 435 kts 119°
2026-04-27 13:06 1.68982 102.97876 36864 ft 435 kts 118°
2026-04-27 13:07 1.66149 103.03228 36867 ft 435 kts 118°
2026-04-27 13:07 1.63314 103.08578 36864 ft 435 kts 118°
2026-04-27 13:08 1.60475 103.13921 36865 ft 435 kts 118°
2026-04-27 13:08 1.57650 103.19246 36864 ft 432 kts 118°
2026-04-27 13:09 1.54839 103.24549 36867 ft 431 kts 118°
2026-04-27 13:09 1.52029 103.29847 36867 ft 431 kts 118°
2026-04-27 13:10 1.49232 103.35106 36867 ft 431 kts 118°
2026-04-27 13:10 1.46369 103.40382 36865 ft 432 kts 118°
2026-04-27 13:11 1.43516 103.45680 36862 ft 433 kts 117°
2026-04-27 13:11 1.40690 103.50997 36873 ft 433 kts 117°
2026-04-27 13:12 1.37870 103.56316 36873 ft 434 kts 117°
2026-04-27 13:12 1.35042 103.61643 36881 ft 434 kts 117°
2026-04-27 13:13 1.32202 103.66954 36886 ft 434 kts 118°
2026-04-27 13:13 1.29341 103.72264 36893 ft 434 kts 118°
2026-04-27 13:14 1.26479 103.77573 36901 ft 434 kts 118°
2026-04-27 13:14 1.23623 103.82876 36903 ft 433 kts 118°
2026-04-27 13:15 1.21296 103.87312 36902 ft 434 kts 116°
2026-04-27 13:15 1.18654 103.92745 36899 ft 435 kts 115°
2026-04-27 13:16 1.16048 103.98213 36879 ft 436 kts 115°
2026-04-27 13:16 1.13427 104.03681 36880 ft 436 kts 115°
2026-04-27 13:17 1.10795 104.09135 36912 ft 436 kts 115°
2026-04-27 13:17 1.08135 104.14569 36909 ft 435 kts 119°
2026-04-27 13:18 1.04488 104.19354 36908 ft 435 kts 136°
2026-04-27 13:18 1.02108 104.21218 36905 ft 436 kts 147°
2026-04-27 13:18 0.99517 104.22809 36897 ft 436 kts 143°
2026-04-27 13:19 0.95025 104.26841 36892 ft 434 kts 127°
2026-04-27 13:19 0.92141 104.32086 36896 ft 432 kts 107°
2026-04-27 13:20 0.91491 104.35006 36900 ft 432 kts 96°
2026-04-27 13:20 0.91399 104.38004 36905 ft 432 kts 88°
2026-04-27 13:20 0.91177 104.44006 36912 ft 433 kts 96°
2026-04-27 13:21 0.90351 104.49927 36910 ft 433 kts 105°
2026-04-27 13:21 0.88009 104.55450 36912 ft 433 kts 118°
2026-04-27 13:22 0.85008 104.60678 36909 ft 434 kts 120°
2026-04-27 13:22 0.81889 104.65850 36903 ft 435 kts 120°
2026-04-27 13:23 0.78781 104.71029 36894 ft 434 kts 120°
2026-04-27 13:23 0.75699 104.76218 36887 ft 434 kts 120°
2026-04-27 13:24 0.72626 104.81413 36880 ft 435 kts 120°
2026-04-27 13:24 0.69550 104.86618 36878 ft 435 kts 120°
2026-04-27 13:25 0.66469 104.91829 36880 ft 435 kts 120°
2026-04-27 13:25 0.63390 104.97034 36879 ft 435 kts 120°
2026-04-27 13:26 0.60314 105.02234 36878 ft 434 kts 120°
2026-04-27 13:26 0.57242 105.07427 36881 ft 434 kts 120°
2026-04-27 13:27 0.54166 105.12627 36879 ft 434 kts 120°
2026-04-27 13:27 0.51092 105.17824 36879 ft 434 kts 120°
2026-04-27 13:28 0.48040 105.22982 36881 ft 434 kts 120°
2026-04-27 13:28 0.44966 105.28175 36881 ft 434 kts 120°
2026-04-27 13:29 0.41886 105.33365 36880 ft 434 kts 121°
2026-04-27 13:29 0.38234 105.38175 36881 ft 435 kts 129°
2026-04-27 13:30 0.34282 105.42766 36881 ft 436 kts 130°
2026-04-27 13:30 0.30276 105.47311 36881 ft 436 kts 130°
2026-04-27 13:31 0.26273 105.51855 36878 ft 436 kts 130°
2026-04-27 13:31 0.22281 105.56404 36878 ft 436 kts 130°
2026-04-27 13:32 0.18289 105.60963 36878 ft 435 kts 130°
2026-04-27 13:32 0.14303 105.65517 36878 ft 435 kts 130°
2026-04-27 13:33 0.10317 105.70069 36882 ft 435 kts 130°
2026-04-27 13:33 0.06330 105.74622 36881 ft 435 kts 130°
2026-04-27 13:34 0.02347 105.79171 36881 ft 435 kts 130°
2026-04-27 13:34 -0.01635 105.83719 36881 ft 435 kts 130°
2026-04-27 13:35 -0.05629 105.88279 36881 ft 436 kts 130°
2026-04-27 13:35 -0.09625 105.92843 36881 ft 436 kts 130°
2026-04-27 13:36 -0.13619 105.97403 36881 ft 436 kts 130°
2026-04-27 13:36 -0.17612 106.01963 36878 ft 435 kts 130°
2026-04-27 13:37 -0.21568 106.06481 36878 ft 435 kts 130°
2026-04-27 13:37 -0.25548 106.11027 36878 ft 434 kts 130°
2026-04-27 13:38 -0.29528 106.15572 36878 ft 434 kts 130°
2026-04-27 13:38 -0.33509 106.20118 36878 ft 434 kts 130°
2026-04-27 13:39 -0.37486 106.24660 36878 ft 434 kts 130°
2026-04-27 13:39 -0.41472 106.29212 36878 ft 436 kts 130°
2026-04-27 13:40 -0.45469 106.33777 36875 ft 436 kts 130°
2026-04-27 13:40 -0.49465 106.38341 36876 ft 436 kts 130°
2026-04-27 13:41 -0.53464 106.42909 36875 ft 437 kts 130°
2026-04-27 13:41 -0.57465 106.47479 36875 ft 437 kts 130°
2026-04-27 13:42 -0.61467 106.52048 36878 ft 437 kts 130°
2026-04-27 13:42 -0.65492 106.56602 36878 ft 437 kts 130°
2026-04-27 13:43 -0.69522 106.61138 36878 ft 437 kts 130°
2026-04-27 13:43 -0.73557 106.65679 36873 ft 437 kts 130°
2026-04-27 13:44 -0.77566 106.70197 36881 ft 438 kts 130°
2026-04-27 13:44 -0.81613 106.74758 36878 ft 438 kts 130°
2026-04-27 13:45 -0.85658 106.79320 36878 ft 438 kts 130°
2026-04-27 13:45 -0.89701 106.83877 36878 ft 438 kts 130°
2026-04-27 13:46 -0.93740 106.88431 36878 ft 438 kts 130°
2026-04-27 13:46 -0.97781 106.92986 36878 ft 438 kts 130°
2026-04-27 13:47 -1.01822 106.97543 36878 ft 438 kts 130°
2026-04-27 13:47 -1.05861 107.02097 36878 ft 438 kts 130°
2026-04-27 13:48 -1.09900 107.06650 36881 ft 437 kts 130°
2026-04-27 13:48 -1.13930 107.11194 36881 ft 437 kts 130°
2026-04-27 13:49 -1.17957 107.15736 36881 ft 437 kts 130°
2026-04-27 13:49 -1.21962 107.20253 36881 ft 437 kts 130°
2026-04-27 13:50 -1.25987 107.24792 36878 ft 437 kts 130°
2026-04-27 13:50 -1.30015 107.29336 36878 ft 437 kts 130°
2026-04-27 13:51 -1.34046 107.33882 36878 ft 437 kts 130°
2026-04-27 13:51 -1.38064 107.38437 36878 ft 436 kts 129°
2026-04-27 13:52 -1.42032 107.43026 36878 ft 436 kts 129°
2026-04-27 13:52 -1.45985 107.47620 36878 ft 436 kts 129°
2026-04-27 13:53 -1.51913 107.54499 36878 ft 435 kts 129°
2026-04-27 13:54 -1.55866 107.59080 36880 ft 435 kts 129°
2026-04-27 13:54 -1.59822 107.63664 36881 ft 435 kts 129°
2026-04-27 13:55 -1.63777 107.68247 36881 ft 435 kts 129°
2026-04-27 13:55 -1.67704 107.72798 36881 ft 435 kts 129°
2026-04-27 13:56 -1.71657 107.77380 36883 ft 436 kts 130°
2026-04-27 13:56 -1.75620 107.81974 36881 ft 436 kts 130°
2026-04-27 13:57 -1.79587 107.86572 36881 ft 436 kts 130°
2026-04-27 13:57 -1.83554 107.91170 36881 ft 436 kts 129°
2026-04-27 13:58 -1.87518 107.95767 36881 ft 436 kts 129°
2026-04-27 13:58 -1.91483 108.00364 36881 ft 436 kts 129°
2026-04-27 13:59 -1.95447 108.04961 36881 ft 436 kts 129°
2026-04-27 13:59 -1.99411 108.09557 36881 ft 436 kts 129°
2026-04-27 14:00 -2.03376 108.14156 36882 ft 436 kts 129°
2026-04-27 14:00 -2.07339 108.18751 36884 ft 436 kts 129°
2026-04-27 14:01 -2.10632 108.22567 36884 ft 436 kts 129°
2026-04-27 14:01 -2.14598 108.27164 36881 ft 436 kts 129°
2026-04-27 14:02 -2.18563 108.31759 36881 ft 436 kts 129°
2026-04-27 14:02 -2.22522 108.36348 36881 ft 436 kts 129°
2026-04-27 14:03 -2.26477 108.40933 36881 ft 435 kts 129°
2026-04-27 14:03 -2.30435 108.45523 36881 ft 436 kts 129°
2026-04-27 14:04 -2.34399 108.50119 36881 ft 436 kts 129°
2026-04-27 14:04 -2.38365 108.54718 36881 ft 436 kts 129°
2026-04-27 14:05 -2.42326 108.59312 36884 ft 436 kts 129°
2026-04-27 14:05 -2.46293 108.63913 36884 ft 436 kts 129°
2026-04-27 14:06 -2.50258 108.68509 36883 ft 436 kts 129°
2026-04-27 14:06 -2.54203 108.73069 36885 ft 436 kts 129°
2026-04-27 14:07 -2.58202 108.77689 36882 ft 436 kts 129°
2026-04-27 14:07 -2.62150 108.82252 36881 ft 437 kts 129°
2026-04-27 14:08 -2.66123 108.86844 36884 ft 437 kts 129°
2026-04-27 14:08 -2.70102 108.91445 36884 ft 437 kts 129°
2026-04-27 14:09 -2.74078 108.96043 36886 ft 437 kts 129°
2026-04-27 14:09 -2.78052 109.00639 36886 ft 437 kts 129°
2026-04-27 14:10 -2.82028 109.05238 36886 ft 437 kts 129°
2026-04-27 14:10 -2.86003 109.09836 36887 ft 437 kts 129°
2026-04-27 14:11 -2.89976 109.14434 36886 ft 437 kts 129°
2026-04-27 14:11 -2.93941 109.19037 36884 ft 436 kts 129°
2026-04-27 14:12 -2.97899 109.23637 36879 ft 436 kts 129°
2026-04-27 14:12 -3.01853 109.28232 36884 ft 436 kts 129°
2026-04-27 14:13 -3.05809 109.32829 36885 ft 436 kts 129°
2026-04-27 14:13 -3.09765 109.37427 36887 ft 436 kts 129°
2026-04-27 14:14 -3.13722 109.42026 36886 ft 436 kts 129°
2026-04-27 14:14 -3.17678 109.46624 36886 ft 436 kts 129°
2026-04-27 14:15 -3.21635 109.51224 36886 ft 436 kts 129°
2026-04-27 14:15 -3.25596 109.55829 36886 ft 436 kts 129°
2026-04-27 14:16 -3.29556 109.60434 36888 ft 436 kts 129°
2026-04-27 14:16 -3.33516 109.65040 36886 ft 436 kts 129°
2026-04-27 14:17 -3.37474 109.69644 36884 ft 437 kts 129°
2026-04-27 14:17 -3.41435 109.74252 36884 ft 437 kts 129°
2026-04-27 14:18 -3.45399 109.78864 36881 ft 437 kts 129°
2026-04-27 14:18 -3.49358 109.83471 36884 ft 437 kts 128°
2026-04-27 14:19 -3.53322 109.88084 36886 ft 437 kts 128°
2026-04-27 14:19 -3.57285 109.92698 36886 ft 437 kts 128°
2026-04-27 14:20 -3.61225 109.97284 36888 ft 437 kts 128°
2026-04-27 14:20 -3.65188 110.01899 36886 ft 437 kts 128°
2026-04-27 14:21 -3.69147 110.06509 36886 ft 437 kts 128°
2026-04-27 14:21 -3.73110 110.11125 36886 ft 437 kts 128°
2026-04-27 14:22 -3.77067 110.15734 36886 ft 437 kts 128°
2026-04-27 14:22 -3.81027 110.20348 36886 ft 437 kts 128°
2026-04-27 14:23 -3.84987 110.24962 36886 ft 437 kts 128°
2026-04-27 14:23 -3.88950 110.29581 36884 ft 437 kts 128°
2026-04-27 14:24 -3.92908 110.34194 36886 ft 437 kts 128°
2026-04-27 14:24 -3.96848 110.38819 36886 ft 435 kts 127°
2026-04-27 14:25 -4.00593 110.43571 36886 ft 434 kts 125°
2026-04-27 14:25 -4.04257 110.48377 36886 ft 434 kts 125°
2026-04-27 14:26 -4.07931 110.53181 36887 ft 434 kts 126°
2026-04-27 14:26 -4.11617 110.57969 36886 ft 434 kts 126°
2026-04-27 14:27 -4.15312 110.62756 36886 ft 434 kts 126°
2026-04-27 14:27 -4.18981 110.67507 36886 ft 434 kts 126°
2026-04-27 14:28 -4.22672 110.72290 36886 ft 434 kts 126°
2026-04-27 14:28 -4.26364 110.77076 36886 ft 434 kts 126°
2026-04-27 14:29 -4.30061 110.81870 36887 ft 436 kts 126°
2026-04-27 14:29 -4.33776 110.86687 36886 ft 438 kts 126°
2026-04-27 14:30 -4.37497 110.91514 36884 ft 438 kts 126°
2026-04-27 14:30 -4.41219 110.96341 36887 ft 438 kts 126°
2026-04-27 14:31 -4.44939 111.01168 36888 ft 437 kts 126°
2026-04-27 14:31 -4.48661 111.05998 36886 ft 438 kts 126°
2026-04-27 14:32 -4.52378 111.10823 36886 ft 438 kts 126°
2026-04-27 14:32 -4.56097 111.15651 36886 ft 437 kts 126°
2026-04-27 14:33 -4.59802 111.20462 36888 ft 435 kts 126°
2026-04-27 14:33 -4.63508 111.25264 36887 ft 436 kts 126°
2026-04-27 14:34 -4.67227 111.30062 36888 ft 436 kts 126°
2026-04-27 14:34 -4.70953 111.34867 36886 ft 436 kts 126°
2026-04-27 14:35 -4.74653 111.39639 36885 ft 436 kts 126°
2026-04-27 14:35 -4.78372 111.44440 36887 ft 436 kts 126°
2026-04-27 14:36 -4.82095 111.49246 36886 ft 436 kts 126°
2026-04-27 14:36 -4.85816 111.54052 36886 ft 436 kts 126°
2026-04-27 14:37 -4.89535 111.58856 36889 ft 436 kts 126°
2026-04-27 14:37 -4.93256 111.63663 36889 ft 436 kts 126°
2026-04-27 14:38 -4.96975 111.68469 36884 ft 437 kts 126°
2026-04-27 14:38 -5.00731 111.73324 36884 ft 443 kts 126°
2026-04-27 14:39 -5.04513 111.78213 36884 ft 444 kts 126°
2026-04-27 14:39 -5.08300 111.83109 36884 ft 445 kts 126°
2026-04-27 14:40 -5.12103 111.88026 36885 ft 447 kts 126°
2026-04-27 14:40 -5.15912 111.92953 36884 ft 447 kts 126°
2026-04-27 14:41 -5.19725 111.97886 36887 ft 447 kts 126°
2026-04-27 14:41 -5.23530 112.02810 36884 ft 447 kts 126°
2026-04-27 14:42 -5.27337 112.07738 36884 ft 447 kts 126°
2026-04-27 14:42 -5.31141 112.12663 36883 ft 447 kts 126°
2026-04-27 14:43 -5.34951 112.17597 36883 ft 448 kts 126°
2026-04-27 14:43 -5.38772 112.22546 36884 ft 448 kts 126°
2026-04-27 14:44 -5.42566 112.27461 36883 ft 448 kts 126°
2026-04-27 14:44 -5.46389 112.32415 36884 ft 449 kts 126°
2026-04-27 14:45 -5.50208 112.37365 36887 ft 449 kts 126°
2026-04-27 14:45 -5.54030 112.42320 36886 ft 449 kts 126°
2026-04-27 14:46 -5.57853 112.47277 36886 ft 449 kts 126°
2026-04-27 14:46 -5.61052 112.51426 36886 ft 449 kts 126°
2026-04-27 14:47 -5.64873 112.56384 36886 ft 448 kts 126°
2026-04-27 14:47 -5.68681 112.61325 36889 ft 447 kts 126°
2026-04-27 14:48 -5.72486 112.66265 36891 ft 447 kts 126°
2026-04-27 14:48 -5.78194 112.73676 36889 ft 447 kts 126°
2026-04-27 14:49 -5.81974 112.78585 36884 ft 447 kts 126°
2026-04-27 14:49 -5.85774 112.83523 36889 ft 447 kts 126°
2026-04-27 14:50 -5.89576 112.88463 36884 ft 447 kts 126°
2026-04-27 14:50 -5.93385 112.93413 36883 ft 447 kts 126°
2026-04-27 14:51 -5.97187 112.98355 36884 ft 447 kts 126°
2026-04-27 14:51 -6.00990 113.03302 36884 ft 447 kts 126°
2026-04-27 14:52 -6.04793 113.08248 36884 ft 447 kts 126°
2026-04-27 14:52 -6.08595 113.13195 36883 ft 447 kts 126°
2026-04-27 14:53 -6.12363 113.18099 36884 ft 446 kts 126°
2026-04-27 14:53 -6.16157 113.23037 36883 ft 446 kts 126°
2026-04-27 14:54 -6.19947 113.27972 36881 ft 446 kts 126°
2026-04-27 14:54 -6.23769 113.32882 36879 ft 447 kts 130°
2026-04-27 14:55 -6.28435 113.37002 36884 ft 448 kts 142°
2026-04-27 14:55 -6.33480 113.40692 36881 ft 448 kts 142°
2026-04-27 14:56 -6.38545 113.44351 36881 ft 448 kts 142°
2026-04-27 14:56 -6.43599 113.48000 36881 ft 447 kts 142°
2026-04-27 14:57 -6.48647 113.51645 36882 ft 447 kts 143°
2026-04-27 14:57 -6.53698 113.55293 36880 ft 447 kts 143°
2026-04-27 14:58 -6.58747 113.58940 36881 ft 447 kts 143°
2026-04-27 14:58 -6.63793 113.62587 36881 ft 447 kts 142°
2026-04-27 14:59 -6.68840 113.66234 36883 ft 447 kts 143°
2026-04-27 14:59 -6.73852 113.69858 36884 ft 447 kts 143°
2026-04-27 15:00 -6.78901 113.73509 36887 ft 447 kts 142°
2026-04-27 15:00 -6.83949 113.77161 36888 ft 448 kts 142°
2026-04-27 15:01 -6.89009 113.80822 36654 ft 447 kts 143°
2026-04-27 15:01 -6.91531 113.82647 36407 ft 447 kts 143°
2026-04-27 15:01 -6.94061 113.84478 36164 ft 447 kts 143°
2026-04-27 15:02 -6.96586 113.86306 35866 ft 448 kts 143°
2026-04-27 15:02 -6.99116 113.88153 35177 ft 449 kts 140°
2026-04-27 15:02 -7.01432 113.90256 34482 ft 448 kts 132°
2026-04-27 15:02 -7.03540 113.92572 33772 ft 449 kts 130°
2026-04-27 15:03 -7.05607 113.94932 32989 ft 450 kts 130°
2026-04-27 15:03 -7.07673 113.97301 32272 ft 450 kts 130°
2026-04-27 15:03 -7.09740 113.99666 31599 ft 449 kts 130°
2026-04-27 15:03 -7.11794 114.02012 31125 ft 443 kts 130°
2026-04-27 15:04 -7.13823 114.04328 30633 ft 439 kts 130°
2026-04-27 15:04 -7.15836 114.06623 30124 ft 435 kts 130°
2026-04-27 15:04 -7.17829 114.08896 29549 ft 431 kts 129°
2026-04-27 15:04 -7.19779 114.11120 29031 ft 426 kts 129°
2026-04-27 15:05 -7.21730 114.13343 28534 ft 421 kts 130°
2026-04-27 15:05 -7.23654 114.15538 28028 ft 416 kts 129°
2026-04-27 15:05 -7.25562 114.17713 27548 ft 412 kts 129°
2026-04-27 15:05 -7.27450 114.19865 27045 ft 408 kts 130°
2026-04-27 15:06 -7.29495 114.21853 26546 ft 411 kts 139°
2026-04-27 15:06 -7.31876 114.23482 26052 ft 416 kts 151°
2026-04-27 15:06 -7.34537 114.24641 25769 ft 417 kts 158°
2026-04-27 15:06 -7.37271 114.25610 25558 ft 416 kts 160°
2026-04-27 15:07 -7.40018 114.26538 25324 ft 415 kts 160°
2026-04-27 15:07 -7.42760 114.27455 25095 ft 414 kts 160°
2026-04-27 15:07 -7.45487 114.28367 24871 ft 413 kts 160°
2026-04-27 15:07 -7.48206 114.29276 24652 ft 411 kts 160°
2026-04-27 15:08 -7.50921 114.30186 24431 ft 410 kts 160°
2026-04-27 15:08 -7.53625 114.31091 24203 ft 409 kts 160°
2026-04-27 15:08 -7.56319 114.31994 23993 ft 408 kts 160°
2026-04-27 15:08 -7.59009 114.32896 23782 ft 406 kts 160°
2026-04-27 15:09 -7.61690 114.33795 23571 ft 405 kts 159°
2026-04-27 15:09 -7.64361 114.34690 23333 ft 404 kts 159°
2026-04-27 15:09 -7.67022 114.35583 23076 ft 402 kts 159°
2026-04-27 15:09 -7.69673 114.36473 22819 ft 401 kts 159°
2026-04-27 15:10 -7.72279 114.37440 22569 ft 398 kts 155°
2026-04-27 15:10 -7.74825 114.38523 22331 ft 396 kts 154°
2026-04-27 15:10 -7.77344 114.39621 22074 ft 394 kts 154°
2026-04-27 15:10 -7.79847 114.40716 21827 ft 392 kts 154°
2026-04-27 15:11 -7.82333 114.41801 21557 ft 385 kts 154°
2026-04-27 15:11 -7.84774 114.42864 21131 ft 380 kts 154°
2026-04-27 15:11 -7.87192 114.43916 20644 ft 377 kts 154°
2026-04-27 15:11 -7.89593 114.44961 20158 ft 375 kts 154°
2026-04-27 15:12 -7.91983 114.46000 19674 ft 373 kts 154°
2026-04-27 15:12 -7.94357 114.47033 19189 ft 371 kts 155°
2026-04-27 15:12 -7.96718 114.48059 18703 ft 368 kts 155°
2026-04-27 15:12 -7.99062 114.49078 18203 ft 365 kts 155°
2026-04-27 15:13 -8.01388 114.50089 17684 ft 362 kts 155°
2026-04-27 15:13 -8.03685 114.51087 17209 ft 357 kts 155°
2026-04-27 15:13 -8.05922 114.52059 16740 ft 353 kts 155°
2026-04-27 15:13 -8.08195 114.53047 16277 ft 350 kts 154°
2026-04-27 15:14 -8.10390 114.54001 15820 ft 347 kts 154°
2026-04-27 15:14 -8.12595 114.54961 15364 ft 344 kts 154°
2026-04-27 15:14 -8.14808 114.55923 14916 ft 341 kts 154°
2026-04-27 15:14 -8.16975 114.56866 14476 ft 338 kts 154°
2026-04-27 15:15 -8.19123 114.57801 14036 ft 334 kts 154°
2026-04-27 15:15 -8.21251 114.58727 13588 ft 332 kts 154°
2026-04-27 15:15 -8.23340 114.59636 13127 ft 330 kts 154°
2026-04-27 15:15 -8.25432 114.60546 12702 ft 325 kts 154°
2026-04-27 15:16 -8.27532 114.61459 12238 ft 323 kts 154°
2026-04-27 15:16 -8.29556 114.62337 11821 ft 320 kts 154°
2026-04-27 15:16 -8.31591 114.63222 11402 ft 317 kts 154°
2026-04-27 15:16 -8.33632 114.64109 10987 ft 314 kts 154°
2026-04-27 15:17 -8.35594 114.64962 10654 ft 309 kts 154°
2026-04-27 15:17 -8.37554 114.65814 10262 ft 305 kts 154°
2026-04-27 15:17 -8.39481 114.66652 10070 ft 294 kts 154°
2026-04-27 15:17 -8.41314 114.67447 9980 ft 280 kts 154°
2026-04-27 15:18 -8.43098 114.68224 9602 ft 279 kts 154°
2026-04-27 15:18 -8.44873 114.68998 9208 ft 277 kts 154°
2026-04-27 15:18 -8.46628 114.69764 8865 ft 274 kts 154°
2026-04-27 15:18 -8.48400 114.70539 8530 ft 281 kts 154°
2026-04-27 15:19 -8.50203 114.71327 8202 ft 283 kts 154°
2026-04-27 15:19 -8.52003 114.72114 7871 ft 281 kts 154°
2026-04-27 15:19 -8.53791 114.72895 7536 ft 279 kts 154°
2026-04-27 15:19 -8.55478 114.73833 7203 ft 276 kts 143°
2026-04-27 15:20 -8.56980 114.75029 6869 ft 274 kts 139°
2026-04-27 15:20 -8.58426 114.76279 6547 ft 273 kts 138°
2026-04-27 15:20 -8.59861 114.77534 6226 ft 272 kts 138°
2026-04-27 15:20 -8.61287 114.78778 5886 ft 270 kts 138°
2026-04-27 15:21 -8.62706 114.80012 5577 ft 268 kts 138°
2026-04-27 15:21 -8.64114 114.81236 5265 ft 266 kts 139°
2026-04-27 15:21 -8.65496 114.82434 4958 ft 264 kts 139°
2026-04-27 15:21 -8.66887 114.83640 4639 ft 263 kts 138°
2026-04-27 15:22 -8.68277 114.84845 4323 ft 262 kts 139°
2026-04-27 15:22 -8.69659 114.86044 4012 ft 260 kts 139°
2026-04-27 15:22 -8.71031 114.87234 3702 ft 259 kts 139°
2026-04-27 15:22 -8.72395 114.88415 3401 ft 258 kts 139°
2026-04-27 15:23 -8.73748 114.89591 3107 ft 256 kts 137°
2026-04-27 15:23 -8.74911 114.90936 3004 ft 254 kts 120°
2026-04-27 15:23 -8.75458 114.92618 3000 ft 252 kts 98°
2026-04-27 15:23 -8.75547 114.94321 2992 ft 233 kts 91°
2026-04-27 15:24 -8.75545 114.95905 2999 ft 220 kts 91°
2026-04-27 15:24 -8.75536 114.97452 3000 ft 220 kts 91°
2026-04-27 15:24 -8.75522 114.98973 3027 ft 209 kts 90°
2026-04-27 15:24 -8.75477 115.00416 2932 ft 201 kts 89°
2026-04-27 15:25 -8.75424 115.01799 2641 ft 192 kts 89°
2026-04-27 15:25 -8.75372 115.03107 2351 ft 185 kts 89°
2026-04-27 15:25 -8.75321 115.04371 2099 ft 175 kts 89°
2026-04-27 15:25 -8.75275 115.05564 1879 ft 163 kts 89°
2026-04-27 15:26 -8.75231 115.06664 1724 ft 149 kts 89°
2026-04-27 15:26 -8.75193 115.07650 1552 ft 133 kts 89°
2026-04-27 15:26 -8.75162 115.08560 1326 ft 127 kts 89°
2026-04-27 15:26 -8.75141 115.09462 1136 ft 132 kts 90°
2026-04-27 15:27 -8.75113 115.10395 1018 ft 135 kts 88°
2026-04-27 15:27 -8.75040 115.11340 851 ft 135 kts 89°
2026-04-27 15:27 -8.75025 115.12287 684 ft 135 kts 91°
2026-04-27 15:27 -8.74986 115.13241 496 ft 137 kts 88°
2026-04-27 15:28 -8.74949 115.14203 305 ft 138 kts 88°
2026-04-27 15:28 -8.74906 115.15176 128 ft 139 kts 88°
2026-04-27 15:28 -8.74869 115.16128 32 ft 122 kts 87°
2026-04-27 15:28 -8.74839 115.16800 30 ft 69 kts 87°
2026-04-27 15:29 -8.74826 115.17167 30 ft 47 kts 87°
2026-04-27 15:29 -8.74796 115.17305 30 ft 8 kts 21°
2026-04-27 15:29 -8.74727 115.17314 33 ft 11 kts 359°
2026-04-27 15:29 -8.74679 115.17298 34 ft 8 kts 323°
2026-04-27 15:30 -8.74658 115.17241 35 ft 10 kts 270°
2026-04-27 15:30 -8.74663 115.17173 35 ft 10 kts 267°
2026-04-27 15:30 -8.74664 115.17112 35 ft 11 kts 269°
2026-04-27 15:30 -8.74667 115.17017 35 ft 15 kts 267°
2026-04-27 15:31 -8.74672 115.16905 35 ft 16 kts 267°
2026-04-27 15:31 -8.74676 115.16799 35 ft 12 kts 268°
2026-04-27 15:31 -8.74679 115.16741 35 ft 7 kts 267°
2026-04-27 15:31 -8.74681 115.16691 35 ft 8 kts 267°
2026-04-27 15:32 -8.74683 115.16634 35 ft 8 kts 268°
2026-04-27 15:32 -8.74662 115.16613 36 ft 4 kts 345°
2026-04-27 15:32 -8.74634 115.16610 36 ft 4 kts 355°
2026-04-27 15:32 -8.74603 115.16608 36 ft 4 kts 357°
2026-04-27 15:33 -8.74582 115.16607 36 ft 5 kts 358°
2026-04-27 15:33 -8.74556 115.16606 36 ft 0 kts 358°